Wind_Speed
23 24 26 27 29 31 33 35 37 39 41 42 44 44 44 46 46 46 45 43 42 41 40 40 39 36 35 35 34 33 33 33 33 32 32 32 31 31 32 31 30 29 28
21 23 24 26 28 30 33 35 36 39 41 42 43 44 44 44 45 45 44 43 42 41 41 41 39 37 37 37 35 34 33 32 31 30 30 31 32 31 30 31 30 29 29
21 23 24 26 28 30 31 34 36 38 39 41 42 43 43 44 45 45 44 42 42 42 42 41 40 39 38 37 35 34 33 30 30 31 31 32 34 32 30 30 30 30 30
21 23 24 26 28 30 32 34 35 37 39 40 42 43 44 45 45 46 46 45 44 43 43 43 42 41 40 38 37 36 34 32 33 33 33 32 32 31 30 31 30 30 31
22 24 26 27 29 31 33 35 36 37 39 41 42 44 45 45 46 46 46 46 45 44 44 43 43 42 42 40 40 39 37 36 35 34 33 34 34 33 33 31 30 30 31
24 26 28 29 30 32 35 36 38 38 40 41 43 44 45 45 46 46 46 46 46 46 46 45 44 43 43 42 42 41 40 39 38 37 36 35 35 35 35 34 32 32 32
26 27 29 31 32 35 37 38 39 40 41 42 43 44 44 45 45 46 46 46 46 46 46 47 46 45 45 44 44 43 43 42 41 41 39 38 38 37 37 36 35 35 34
28 30 32 33 36 38 39 40 41 41 42 43 43 43 43 44 43 43 44 44 44 45 45 46 46 46 46 46 46 45 46 45 45 45 43 41 40 38 38 37 37 37 36
31 33 34 36 38 40 41 42 43 43 43 43 42 42 42 41 42 42 43 44 45 46 46 47 47 47 47 47 47 48 48 48 48 48 48 46 43 41 41 39 39 39 37
32 34 37 39 40 41 42 43 44 44 43 42 41 40 41 41 42 43 44 46 47 48 48 48 49 49 48 48 48 48 49 49 50 51 51 50 48 46 44 44 42 41 40
33 35 37 39 41 42 43 44 45 44 43 41 40 40 41 42 43 45 46 47 47 48 49 50 51 51 51 51 51 50 51 51 51 52 53 53 53 51 49 47 46 46 44
35 37 39 41 42 43 44 44 44 43 42 41 41 42 43 44 45 46 48 49 49 50 51 51 52 52 52 52 52 52 52 53 53 53 54 55 56 56 55 53 51 49 48
37 39 40 42 44 44 44 44 43 43 42 42 42 43 44 46 47 48 50 50 50 51 51 51 52 52 52 53 53 53 54 54 54 54 54 55 57 58 58 57 56 54 51
38 40 42 44 44 45 45 44 43 43 42 43 43 44 45 47 48 50 51 51 51 50 51 51 50 51 52 53 53 53 54 54 54 54 55 55 57 59 60 60 59 59 56
40 42 44 45 45 45 45 44 43 43 43 43 44 45 46 48 49 50 50 50 50 49 49 49 49 50 51 52 52 53 53 53 54 54 54 55 56 57 58 59 60 60 58
41 43 45 46 46 45 45 44 44 44 44 44 44 46 47 48 48 49 49 49 49 48 48 47 47 47 47 47 48 49 50 50 51 52 53 54 55 56 57 58 59 59 59
43 45 46 47 46 46 45 45 45 45 44 44 45 46 47 48 49 50 49 49 47 47 46 44 43 42 41 42 43 44 45 46 47 48 50 52 53 55 55 56 57 57 58
45 46 47 47 46 46 46 46 46 45 45 45 46 46 47 48 49 49 47 45 44 43 41 39 37 36 35 36 37 39 41 42 44 45 45 47 49 51 52 54 54 55 56
46 47 47 47 47 46 46 46 45 45 45 45 45 46 47 48 48 46 43 42 41 39 36 33 32 30 30 30 31 33 35 37 39 41 42 42 44 46 48 49 50 52 53
46 47 47 47 47 47 46 46 45 45 45 45 45 46 47 47 45 43 41 39 37 34 31 28 26 25 24 24 26 28 31 32 35 37 39 39 39 41 43 44 46 47 48
46 46 47 47 47 47 46 45 45 45 45 45 45 45 46 44 42 41 39 36 34 31 27 25 23 20 19 19 20 23 25 28 32 34 36 37 37 38 38 39 40 41 43
45 45 46 47 47 47 46 45 44 44 44 44 44 45 44 42 40 39 36 34 32 29 26 22 20 17 16 15 16 18 22 25 28 31 33 34 34 35 35 35 35 36 36
44 45 46 46 47 47 46 44 43 43 43 44 43 43 42 40 39 38 35 32 30 27 24 21 18 16 13 12 12 14 19 23 26 28 30 31 31 31 31 31 32 33 33
43 45 46 46 46 46 46 44 43 42 42 43 42 41 40 38 37 36 33 31 29 26 23 19 16 13 10 8 9 11 15 20 24 26 28 28 28 28 28 29 30 29 30
43 44 46 46 46 46 45 44 42 41 41 42 42 40 38 37 36 34 32 31 28 25 22 18 15 11 7 5 6 7 11 17 22 25 26 26 26 25 26 27 28 28 28
43 44 45 46 46 45 44 43 41 40 40 40 40 39 37 36 34 33 31 30 28 25 22 19 15 11 6 2 3 7 10 14 19 21 23 23 23 24 24 25 26 26 26
Wind_Direction
281 281 281 281 281 281 281 282 283 284 285 286 286 287 288 287 287 288 288 288 287 285 284 283 283 281 278 277 278 277 275 271 268 261 255 254 251 247 244 243 242 241 240
286 286 285 285 285 285 284 283 284 284 286 287 287 287 288 288 288 288 287 287 285 284 282 282 281 279 278 276 275 274 273 269 264 257 252 249 246 244 243 241 240 239 240
292 290 289 289 289 289 289 288 288 288 288 288 288 288 287 288 288 287 286 286 285 283 282 280 278 277 275 274 271 270 268 267 260 253 251 250 246 244 242 239 238 239 237
300 298 297 296 295 295 294 293 293 293 292 291 290 290 289 289 289 289 288 287 285 283 281 279 277 276 274 272 270 269 265 263 258 253 249 247 246 243 240 238 237 237 235
309 307 304 302 302 301 300 299 298 297 296 294 293 292 292 291 290 289 288 287 285 283 281 278 276 275 272 270 268 267 264 260 256 253 252 249 246 243 239 236 235 235 233
314 313 311 309 307 306 305 304 303 301 300 298 296 295 294 292 291 291 290 288 287 284 282 279 276 275 272 270 267 265 263 259 255 252 252 249 246 242 238 235 233 232 231
319 317 316 315 313 312 311 309 307 306 304 302 299 297 296 294 293 292 291 289 288 285 283 281 278 275 272 270 267 265 262 259 255 252 250 247 244 242 239 236 234 232 231
323 321 320 319 318 317 315 313 311 310 307 305 303 300 298 296 295 294 293 291 289 287 284 282 280 276 273 270 267 264 261 258 255 252 249 247 245 242 239 236 235 233 231
325 325 324 323 322 321 319 316 314 312 309 306 304 301 299 298 296 295 293 292 290 288 286 283 280 277 273 270 267 263 260 257 254 251 247 246 245 242 237 235 234 232 230
326 326 325 324 323 322 320 317 315 313 310 308 305 302 301 298 296 294 293 292 290 288 286 283 280 277 274 270 267 264 260 256 253 250 248 246 244 242 239 235 232 230 229
327 326 325 325 324 323 321 319 317 314 312 309 306 304 302 299 297 296 295 293 290 287 284 282 279 277 273 270 266 262 259 256 253 250 247 245 243 241 240 236 233 231 230
327 327 327 326 325 324 322 320 318 315 313 310 307 305 303 301 300 298 296 294 291 288 285 281 278 274 271 268 265 261 258 255 252 250 247 244 242 241 240 238 237 234 231
329 328 328 327 327 325 324 322 320 317 314 311 309 307 305 304 303 301 299 296 293 289 285 281 277 273 270 266 263 260 257 254 251 249 247 244 242 240 240 239 238 236 233
329 329 328 328 328 327 326 324 321 319 316 314 311 309 308 308 306 305 302 299 295 291 287 282 277 273 269 266 262 258 256 253 250 247 245 243 241 240 240 239 238 237 235
330 330 329 329 329 329 327 325 323 321 318 316 314 312 311 311 310 308 305 302 297 293 289 285 279 275 271 266 261 257 254 251 249 246 243 242 240 239 238 238 238 237 235
331 332 331 331 331 330 328 326 324 323 321 318 317 316 315 315 314 312 309 305 300 296 292 288 283 277 273 267 261 256 251 249 247 244 241 239 238 237 236 236 237 237 235
334 334 333 333 332 331 330 328 327 325 323 322 321 320 320 319 318 316 312 308 304 300 296 292 286 280 273 265 259 254 249 246 243 241 239 238 236 235 235 236 236 236 236
336 336 335 334 334 333 331 330 329 328 326 325 324 324 324 322 321 320 317 313 309 306 301 295 288 281 273 265 259 252 247 244 240 238 237 236 234 234 234 234 236 236 235
336 336 336 335 335 334 333 332 331 330 329 328 327 327 327 326 325 324 322 319 315 312 306 299 292 284 274 267 259 251 245 239 236 234 232 232 231 231 232 233 234 235 235
336 337 337 337 336 336 335 334 333 332 331 330 330 330 330 330 330 329 327 325 322 317 312 306 299 289 277 268 257 250 241 234 231 229 228 227 227 229 229 230 232 233 233
336 337 338 338 338 338 337 336 335 335 334 333 333 333 334 334 334 333 332 331 329 325 319 313 306 295 282 271 259 247 235 229 225 223 223 223 223 225 226 228 229 231 232
336 337 338 339 339 339 339 338 337 337 337 336 336 336 337 337 338 338 337 335 334 332 328 322 315 304 290 274 259 244 232 224 220 218 217 217 218 220 223 225 225 227 228
336 338 339 339 339 340 340 339 338 339 339 339 339 339 340 341 341 343 343 341 339 337 334 328 319 312 297 275 256 241 229 221 216 213 212 212 213 216 219 220 221 223 225
336 338 339 339 340 341 341 341 340 340 341 342 342 342 343 344 345 346 347 346 345 343 341 337 328 317 302 276 252 235 224 214 209 207 207 207 208 210 213 214 214 216 220
336 337 339 340 340 341 342 342 341 341 343 344 345 345 346 347 347 349 350 350 351 350 350 347 342 335 320 280 245 224 206 200 200 200 201 202 203 205 206 207 208 211 215
336 337 339 340 341 341 342 342 342 342 344 345 347 348 348 349 349 351 353 355 357 359 360 0 359 356 346 308 207 193 185 185 187 189 192 195 199 200 201 204 207 210 213
Height
5855 5854 5853 5851 5850 5848 5846 5845 5842 5840 5837 5835 5832 5829 5826 5822 5819 5817 5815 5813 5812 5810 5809 5807 5807 5806 5805 5804 5804 5803 5804 5804 5804 5806 5808 5810 5812 5815 5818 5823 5826 5830 5833
5850 5849 5847 5846 5844 5842 5840 5837 5835 5832 5829 5826 5823 5819 5816 5813 5810 5808 5806 5804 5802 5801 5799 5798 5797 5797 5796 5795 5795 5796 5796 5797 5797 5798 5800 5803 5806 5808 5812 5816 5819 5823 5827
5846 5844 5842 5840 5838 5835 5833 5830 5827 5824 5820 5817 5813 5810 5807 5804 5800 5798 5795 5794 5793 5791 5789 5788 5787 5787 5787 5787 5787 5787 5787 5788 5789 5791 5793 5796 5798 5802 5805 5809 5812 5816 5820
5841 5839 5836 5834 5831 5828 5825 5822 5819 5815 5811 5808 5804 5800 5797 5793 5790 5787 5784 5783 5782 5780 5779 5778 5777 5777 5777 5778 5778 5779 5779 5780 5781 5783 5785 5788 5790 5794 5797 5801 5806 5809 5814
5836 5833 5830 5827 5824 5821 5817 5813 5810 5806 5802 5798 5793 5789 5785 5782 5778 5776 5773 5771 5770 5768 5767 5766 5766 5766 5766 5767 5768 5769 5770 5771 5773 5775 5777 5779 5782 5785 5790 5794 5798 5802 5806
5831 5828 5824 5821 5817 5813 5809 5804 5800 5796 5792 5787 5783 5778 5774 5770 5767 5764 5761 5759 5757 5755 5754 5753 5754 5754 5754 5755 5756 5758 5760 5762 5764 5766 5769 5771 5774 5777 5781 5786 5790 5794 5799
5826 5823 5819 5815 5810 5806 5801 5796 5791 5786 5781 5776 5771 5767 5762 5758 5755 5752 5749 5747 5744 5743 5741 5739 5740 5741 5742 5742 5744 5746 5748 5750 5753 5756 5759 5762 5765 5768 5772 5777 5781 5786 5791
5822 5817 5813 5808 5803 5797 5791 5786 5781 5776 5770 5765 5760 5755 5751 5747 5743 5740 5737 5734 5732 5730 5728 5727 5726 5726 5728 5729 5730 5732 5734 5737 5741 5744 5748 5752 5756 5759 5763 5768 5772 5778 5783
5817 5812 5807 5801 5795 5789 5783 5777 5771 5765 5760 5754 5749 5744 5740 5736 5732 5729 5725 5722 5719 5717 5715 5713 5712 5712 5712 5714 5715 5717 5720 5723 5727 5731 5736 5740 5745 5749 5754 5758 5763 5768 5774
5813 5807 5801 5795 5789 5782 5775 5769 5762 5756 5750 5744 5739 5734 5730 5726 5722 5718 5714 5711 5707 5704 5701 5699 5697 5697 5697 5698 5700 5702 5704 5708 5712 5716 5721 5727 5732 5738 5743 5748 5753 5758 5764
5808 5802 5796 5789 5782 5775 5767 5760 5753 5746 5740 5734 5729 5724 5719 5715 5710 5706 5702 5698 5694 5690 5687 5684 5682 5681 5681 5682 5684 5686 5688 5692 5696 5701 5706 5712 5718 5724 5730 5736 5742 5748 5754
5803 5796 5789 5782 5775 5767 5759 5751 5744 5737 5730 5724 5719 5714 5708 5703 5698 5693 5688 5683 5678 5674 5670 5667 5665 5664 5664 5665 5666 5669 5672 5675 5680 5685 5690 5696 5703 5710 5716 5723 5730 5736 5743
5797 5790 5782 5775 5767 5759 5750 5742 5734 5727 5721 5715 5709 5703 5696 5690 5684 5678 5672 5666 5661 5657 5653 5650 5647 5646 5645 5646 5648 5650 5654 5658 5663 5668 5674 5680 5686 5693 5701 5708 5716 5723 5730
5791 5783 5775 5767 5759 5750 5742 5733 5726 5718 5711 5705 5698 5691 5684 5677 5670 5663 5656 5649 5643 5638 5634 5631 5629 5627 5627 5627 5629 5631 5635 5639 5645 5650 5657 5663 5670 5677 5684 5692 5700 5708 5716
5785 5777 5768 5759 5751 5742 5733 5725 5717 5709 5702 5695 5687 5680 5672 5665 5656 5648 5640 5633 5626 5620 5615 5612 5609 5608 5607 5607 5609 5612 5616 5621 5626 5633 5639 5646 5653 5661 5668 5676 5685 5693 5702
5778 5770 5760 5751 5743 5734 5725 5717 5709 5701 5693 5685 5677 5669 5660 5652 5643 5634 5625 5617 5609 5603 5598 5593 5590 5588 5587 5588 5590 5593 5597 5603 5609 5615 5622 5629 5637 5645 5653 5661 5669 5678 5687
5771 5762 5753 5744 5735 5726 5717 5708 5700 5692 5683 5675 5666 5658 5649 5640 5630 5620 5610 5602 5593 5587 5581 5576 5572 5571 5570 5570 5572 5575 5580 5586 5593 5600 5606 5613 5622 5630 5639 5647 5655 5664 5672
5764 5755 5746 5736 5727 5718 5709 5700 5692 5683 5674 5665 5656 5647 5638 5628 5618 5607 5597 5588 5580 5572 5566 5561 5557 5555 5555 5555 5557 5560 5565 5571 5578 5585 5592 5599 5607 5616 5625 5633 5641 5649 5658
5757 5748 5739 5729 5720 5711 5702 5693 5684 5675 5666 5657 5648 5638 5628 5618 5607 5597 5587 5577 5568 5561 5554 5549 5545 5543 5543 5543 5545 5548 5553 5559 5566 5572 5580 5587 5595 5603 5612 5621 5630 5638 5645
5751 5742 5733 5723 5714 5704 5695 5686 5677 5668 5658 5649 5640 5630 5619 5609 5598 5588 5578 5568 5559 5551 5545 5540 5536 5534 5533 5533 5535 5537 5542 5548 5555 5562 5569 5577 5584 5592 5600 5609 5618 5625 5633
5745 5736 5727 5717 5708 5698 5689 5679 5670 5661 5651 5642 5632 5622 5612 5601 5591 5581 5571 5561 5553 5545 5539 5534 5530 5527 5526 5526 5527 5529 5533 5539 5545 5552 5560 5567 5575 5583 5592 5600 5608 5615 5622
5740 5731 5721 5712 5702 5693 5683 5674 5664 5655 5645 5636 5626 5616 5605 5595 5585 5576 5566 5556 5548 5541 5534 5529 5525 5522 5521 5520 5521 5523 5527 5532 5538 5544 5552 5560 5568 5576 5584 5592 5599 5606 5614
5734 5725 5716 5707 5697 5687 5678 5668 5659 5650 5640 5631 5621 5611 5601 5590 5581 5571 5562 5553 5545 5538 5531 5526 5522 5519 5517 5517 5517 5519 5522 5526 5532 5539 5546 5554 5562 5569 5577 5585 5592 5599 5607
5729 5720 5711 5702 5692 5683 5673 5664 5654 5645 5636 5626 5616 5607 5597 5587 5578 5568 5559 5551 5543 5535 5529 5524 5519 5517 5515 5514 5515 5516 5518 5523 5528 5535 5542 5550 5557 5565 5572 5579 5586 5593 5600
5724 5715 5706 5697 5688 5678 5669 5659 5650 5641 5632 5623 5613 5603 5594 5585 5576 5567 5558 5550 5542 5534 5528 5523 5518 5515 5514 5513 5514 5515 5517 5521 5526 5533 5540 5547 5554 5561 5568 5575 5581 5588 5594
5719 5710 5702 5693 5683 5674 5665 5656 5646 5638 5629 5620 5611 5601 5592 5583 5574 5566 5558 5550 5542 5535 5529 5524 5519 5516 5514 5513 5514 5515 5518 5522 5526 5532 5539 5545 5552 5558 5565 5571 5577 5583 5589